sat.trackr.live / text

‹ back to catalog

FLOCK 4BE-17

NORAD 60492 · 2024-149AA

PAYLOAD ACTIVE UNKNOWN

§ Identity

Operator
Country
US
Launch date
2024-08-16
Launch site
AFWTR
Launch vehicle
Mass (kg)
RCS (m²)

Purposes: earth_obs

External: N2YO · Heavens-Above · Gunter

§ Orbital elements

Epoch: 2026-05-25T05:02:46.082976Z

Period
93.57 min
Inclination
97.3772°
Eccentricity
0.0002258
Mean motion
15.39018023 rev/d
Perigee alt
447.5 km
Apogee alt
450.6 km
Semi-major
6,827.1 km
B*
3.9287e-4
RAAN
228.4113°
Arg perigee
16.3768°
Mean anomaly
343.7550°
Rev number
9,872

§ Raw data

FLOCK 4BE-171 60492U 24149AA  26145.21025559  .00015108  00000+0  39287-3 0  99942 60492  97.3772 228.4113 0002258  16.3768 343.7550 15.39018023 98722

JSON: /api/v1/satellites/60492 · /tle

For live sub-satellite position, see the globe view (requires WebGL).

§ Visibility from observer

Set your observer location to see the next 7 days of passes ≥ 10°. The values pass through the URL so the page stays shareable.

No JS? Fill the form by hand. The geolocation button needs JavaScript.